Nogales, AZ

10:36 AM MST on February 24, 2017 (GMT -0700)
Nogales International

Weather History for KOLS - January, 2013

Change the Weather History Date:

Saturday, January 19, 2013

  Actual Average (KFHU) Record (KFHU)
Temperature  
Mean Temperature 54 °F -  
Max Temperature 73 °F 59 °F 74 °F (1986)
Min Temperature 35 °F 39 °F 17 °F (1987)
Degree Days  
Heating Degree Days 11    
Growing Degree Days 4 (Base 50)    
Moisture  
Dew Point 16 °F    
Average Humidity 26    
Maximum Humidity 43    
Minimum Humidity 10    
Precipitation  
Precipitation 0.00 in - - ()
Sea Level Pressure  
Sea Level Pressure 30.11 in    
Wind  
Wind Speed 2 mph (ENE)    
Max Wind Speed 9 mph    
Max Gust Speed -    
Visibility 10 miles    
Events      
Averages and records for this station are not official NWS values.
T = Trace of Precipitation, MM = Missing Value Source: NWS Daily Summary

Daily Weather History Graph

Daily Weather History Graph

Search for Another Location

Airport or City:

Trip Planner

Search our weather history database for the weather conditions in past years. The results will help you decide how hot, cold, wet, or windy it might be!

Date:

Astronomy

Jan. 19, 2013 Rise Set
Actual Time 7:21 AM MST 5:46 PM MST
Civil Twilight 6:55 AM MST 6:12 PM MST
Nautical Twilight 6:26 AM MST 6:42 PM MST
Astronomical Twilight 5:57 AM MST 7:11 PM MST
Moon 12:11 PM MST (1/19) 1:05 AM MST (1/19)
Length of Visible Light 11h 17m
Length of Day
10h 24m
First Quarter, 58% of the Moon is Illuminated
Jan 19
First Quarter
Jan 26
Full
Feb 3
Last Quarter
Feb 10
New
Feb 17
First Quarter

Hourly Weather History & Observations

Time (MST) Temp. Windchill Dew Point Humidity Pressure Visibility Wind Dir Wind Speed Gust Speed Precip Events Conditions
12:54 AM 39.9 °F - 7.0 °F 26% 30.09 in 10.0 mi Calm Calm - N/A   Clear
1:54 AM 37.9 °F 34.4 °F 7.0 °F 28% 30.08 in 10.0 mi East 4.6 mph - N/A   Clear
2:54 AM 37.9 °F 35.5 °F 7.0 °F 28% 30.08 in 10.0 mi ENE 3.5 mph - N/A   Clear
3:54 AM 36.0 °F - 9.0 °F 33% 30.09 in 10.0 mi Calm Calm - N/A   Clear
4:54 AM 35.1 °F - 10.0 °F 35% 30.10 in 10.0 mi Calm Calm - N/A   Clear
5:54 AM 36.0 °F - 10.0 °F 34% 30.13 in 10.0 mi Calm Calm - N/A   Clear
6:54 AM 35.1 °F 32.2 °F 12.0 °F 39% 30.16 in 10.0 mi East 3.5 mph - N/A   Clear
7:54 AM 35.1 °F - 12.9 °F 40% 30.18 in 10.0 mi Calm Calm - N/A   Clear
8:54 AM 45.0 °F - 15.1 °F 30% 30.19 in 10.0 mi Calm Calm - N/A   Unknown
9:54 AM 54.0 °F - 14.0 °F 21% 30.19 in 10.0 mi Calm Calm - N/A   Clear
10:54 AM 62.1 °F - 9.0 °F 12% 30.17 in 10.0 mi SW 4.6 mph - N/A   Clear
11:54 AM 68.0 °F - 9.0 °F 10% 30.12 in 10.0 mi Calm Calm - N/A   Clear
12:54 PM 72.0 °F - 19.9 °F 14% 30.08 in 10.0 mi North - - N/A   Clear
1:54 PM 73.0 °F - 21.9 °F 15% 30.05 in 10.0 mi West 6.9 mph - N/A   Clear
2:54 PM 72.0 °F - 19.9 °F 14% 30.04 in 10.0 mi West 3.5 mph - N/A   Clear
3:54 PM 72.0 °F - 19.9 °F 14% 30.05 in 10.0 mi Variable 3.5 mph - N/A   Clear
4:54 PM 72.0 °F - 19.9 °F 14% 30.05 in 10.0 mi North 3.5 mph - N/A   Clear
5:54 PM 63.0 °F - 23.0 °F 22% 30.07 in 10.0 mi ENE 4.6 mph - N/A   Clear
6:54 PM 60.1 °F - 23.0 °F 24% 30.09 in 10.0 mi NNE 9.2 mph - N/A   Clear
7:54 PM 57.9 °F - 21.9 °F 25% 30.12 in 10.0 mi Calm Calm - N/A   Clear
8:54 PM 53.1 °F - 23.0 °F 31% 30.12 in 10.0 mi SSE 4.6 mph - N/A   Clear
9:54 PM 46.9 °F - 24.1 °F 41% 30.12 in 10.0 mi East 3.5 mph - N/A   Clear
10:54 PM 45.0 °F 43.5 °F 23.0 °F 42% 30.11 in 10.0 mi East 3.5 mph - N/A   Clear
11:54 PM 43.0 °F 41.3 °F 21.9 °F 43% 30.11 in 10.0 mi East 3.5 mph - N/A   Clear